Time,TemperatureF,DewpointF,PressureIn,WindDirection,WindDirectionDegrees,WindSpeedMPH,WindSpeedGustMPH,Humidity,HourlyPrecipIn,Conditions,Clouds,dailyrainin,SoftwareType,DateUTC
2013-10-03 00:02:00,35.8,26.2,24.14,North,0,15.0,18.0,68,0.00,,,0.00,meteohub,2013-10-03 06:02:00,
2013-10-03 00:07:00,35.8,26.2,24.14,North,0,15.0,18.0,68,0.00,,,0.00,meteohub,2013-10-03 06:07:00,
2013-10-03 00:12:00,35.8,26.2,24.14,ENE,68,11.0,15.0,68,0.00,,,0.00,meteohub,2013-10-03 06:12:00,
2013-10-03 00:17:00,36.0,25.7,24.14,NE,45,15.0,15.0,66,0.00,,,0.00,meteohub,2013-10-03 06:17:00,
2013-10-03 00:22:00,36.0,25.7,24.14,NE,45,13.0,15.0,66,0.00,,,0.00,meteohub,2013-10-03 06:22:00,
2013-10-03 00:27:00,35.6,25.7,24.14,North,0,11.0,15.0,67,0.00,,,0.00,meteohub,2013-10-03 06:27:00,
2013-10-03 00:32:00,35.4,25.9,24.14,North,0,11.0,15.0,68,0.00,,,0.00,meteohub,2013-10-03 06:32:00,
2013-10-03 00:37:00,35.4,25.9,24.13,NE,45,15.0,15.0,68,0.00,,,0.00,meteohub,2013-10-03 06:37:00,
2013-10-03 00:42:00,35.6,26.1,24.13,NE,45,15.0,16.0,68,0.00,,,0.00,meteohub,2013-10-03 06:42:00,
2013-10-03 00:47:00,35.8,25.9,24.14,NE,45,18.0,18.0,67,0.00,,,0.00,meteohub,2013-10-03 06:47:00,
2013-10-03 00:52:00,36.0,26.1,24.13,NE,45,20.0,20.0,67,0.00,,,0.00,meteohub,2013-10-03 06:52:00,
2013-10-03 00:57:00,36.0,26.1,24.13,NE,45,17.0,22.0,67,0.00,,,0.00,meteohub,2013-10-03 06:57:00,
2013-10-03 01:02:00,35.8,26.6,24.14,NE,45,20.0,22.0,69,0.00,,,0.00,meteohub,2013-10-03 07:02:00,
2013-10-03 01:07:00,35.8,26.6,24.13,NE,45,20.0,22.0,69,0.00,,,0.00,meteohub,2013-10-03 07:07:00,
2013-10-03 01:12:00,35.4,27.0,24.14,ENE,68,21.0,21.0,71,0.00,,,0.00,meteohub,2013-10-03 07:12:00,
2013-10-03 01:17:00,35.2,27.5,24.14,East,90,13.0,21.0,73,0.00,,,0.00,meteohub,2013-10-03 07:17:00,
2013-10-03 01:22:00,34.9,27.5,24.14,NE,45,20.0,21.0,74,0.00,,,0.00,meteohub,2013-10-03 07:22:00,
2013-10-03 01:27:00,34.9,27.7,24.14,NE,45,17.0,21.0,75,0.00,,,0.00,meteohub,2013-10-03 07:27:00,
2013-10-03 01:32:00,34.3,28.2,24.13,East,90,15.0,20.0,78,0.00,,,0.00,meteohub,2013-10-03 07:32:00,
2013-10-03 01:37:00,34.2,28.4,24.13,NE,45,15.0,22.0,79,0.00,,,0.00,meteohub,2013-10-03 07:37:00,
2013-10-03 01:42:00,34.2,28.6,24.14,ENE,68,17.0,22.0,80,0.00,,,0.00,meteohub,2013-10-03 07:42:00,
2013-10-03 01:47:00,34.0,28.4,24.14,East,90,17.0,22.0,80,0.00,,,0.00,meteohub,2013-10-03 07:47:00,
2013-10-03 01:52:00,33.6,28.8,24.14,SSW,203,20.0,21.0,82,0.00,,,0.00,meteohub,2013-10-03 07:52:00,
2013-10-03 01:57:00,33.1,28.8,24.14,NE,45,21.0,21.0,84,0.00,,,0.00,meteohub,2013-10-03 07:57:00,
2013-10-03 02:02:00,33.1,28.8,24.14,East,90,20.0,22.0,84,0.00,,,0.00,meteohub,2013-10-03 08:02:00,
2013-10-03 02:07:00,33.1,28.8,24.14,East,90,20.0,22.0,84,0.00,,,0.00,meteohub,2013-10-03 08:07:00,
2013-10-03 02:12:00,32.4,29.5,24.14,NE,45,21.0,22.0,89,0.00,,,0.00,meteohub,2013-10-03 08:12:00,
2013-10-03 02:17:00,32.2,29.7,24.14,NE,45,19.0,23.0,90,0.00,,,0.00,meteohub,2013-10-03 08:17:00,
2013-10-03 02:22:00,31.6,29.8,24.14,NE,45,21.0,23.0,93,0.00,,,0.00,meteohub,2013-10-03 08:22:00,
2013-10-03 02:27:00,31.5,30.4,24.14,NE,45,21.0,23.0,96,0.00,,,0.00,meteohub,2013-10-03 08:27:00,
2013-10-03 02:32:00,31.1,30.6,24.14,NE,45,17.0,23.0,98,0.00,,,0.00,meteohub,2013-10-03 08:32:00,
2013-10-03 02:37:00,31.1,30.9,24.14,NE,45,23.0,23.0,99,0.00,,,0.00,meteohub,2013-10-03 08:37:00,
2013-10-03 02:42:00,30.9,30.7,24.14,NE,45,18.0,23.0,99,0.00,,,0.00,meteohub,2013-10-03 08:42:00,
2013-10-03 02:47:00,30.7,30.6,24.14,NE,45,22.0,25.0,99,0.00,,,0.00,meteohub,2013-10-03 08:47:00,
2013-10-03 02:52:00,30.6,30.4,24.14,NE,45,21.0,26.0,99,0.00,,,0.00,meteohub,2013-10-03 08:52:00,
2013-10-03 02:57:00,30.6,30.4,24.14,NE,45,23.0,26.0,99,0.00,,,0.00,meteohub,2013-10-03 08:57:00,
2013-10-03 03:02:00,30.4,30.2,24.14,NE,45,21.0,27.0,99,0.00,,,0.00,meteohub,2013-10-03 09:02:00,
2013-10-03 03:07:00,30.4,30.2,24.14,NE,45,21.0,27.0,99,0.00,,,0.00,meteohub,2013-10-03 09:07:00,
2013-10-03 03:12:00,30.4,30.2,24.14,NE,45,21.0,27.0,99,0.00,,,0.00,meteohub,2013-10-03 09:12:00,
2013-10-03 03:17:00,30.2,30.0,24.14,NE,45,23.0,24.0,99,0.00,,,0.00,meteohub,2013-10-03 09:17:00,
2013-10-03 03:22:00,30.2,30.0,24.14,NE,45,21.0,27.0,99,0.00,,,0.00,meteohub,2013-10-03 09:22:00,
2013-10-03 03:27:00,30.0,29.8,24.14,NE,45,24.0,27.0,99,0.00,,,0.00,meteohub,2013-10-03 09:27:00,
2013-10-03 03:32:00,30.0,29.8,24.14,NE,45,18.0,27.0,99,0.00,,,0.00,meteohub,2013-10-03 09:32:00,
2013-10-03 03:37:00,30.0,29.8,24.14,NE,45,17.0,24.0,99,0.00,,,0.00,meteohub,2013-10-03 09:37:00,
2013-10-03 03:42:00,29.8,29.7,24.14,NE,45,21.0,24.0,99,0.00,,,0.00,meteohub,2013-10-03 09:42:00,
2013-10-03 03:47:00,29.8,29.7,24.14,NE,45,17.0,21.0,99,0.00,,,0.00,meteohub,2013-10-03 09:47:00,
2013-10-03 03:52:00,29.8,29.7,24.14,NE,45,22.0,22.0,99,0.00,,,0.00,meteohub,2013-10-03 09:52:00,
2013-10-03 03:57:00,29.8,29.7,24.14,NE,45,17.0,22.0,99,0.00,,,0.00,meteohub,2013-10-03 09:57:00,
2013-10-03 04:02:00,29.8,29.7,24.14,NE,45,16.0,22.0,99,0.00,,,0.00,meteohub,2013-10-03 10:02:00,
2013-10-03 04:07:00,29.8,29.7,24.14,NE,45,16.0,22.0,99,0.00,,,0.00,meteohub,2013-10-03 10:07:00,
2013-10-03 04:12:00,29.7,29.5,24.14,NE,45,11.0,18.0,99,0.00,,,0.00,meteohub,2013-10-03 10:12:00,
2013-10-03 04:17:00,29.5,29.3,24.14,North,0,14.0,16.0,99,0.00,,,0.00,meteohub,2013-10-03 10:17:00,
2013-10-03 04:22:00,29.3,29.1,24.15,East,90,14.0,16.0,99,0.00,,,0.00,meteohub,2013-10-03 10:22:00,
2013-10-03 04:27:00,29.3,29.1,24.15,East,90,13.0,15.0,99,0.00,,,0.00,meteohub,2013-10-03 10:27:00,
2013-10-03 04:32:00,29.1,28.9,24.15,NNW,338,15.0,15.0,99,0.00,,,0.00,meteohub,2013-10-03 10:32:00,
2013-10-03 04:37:00,29.1,28.9,24.15,North,0,15.0,15.0,99,0.00,,,0.00,meteohub,2013-10-03 10:37:00,
2013-10-03 04:42:00,29.1,28.9,24.15,North,0,17.0,17.0,99,0.00,,,0.00,meteohub,2013-10-03 10:42:00,
2013-10-03 04:47:00,29.1,28.9,24.15,North,0,15.0,17.0,99,0.00,,,0.00,meteohub,2013-10-03 10:47:00,
2013-10-03 04:52:00,29.1,28.9,24.15,North,0,21.0,21.0,99,0.00,,,0.00,meteohub,2013-10-03 10:52:00,
2013-10-03 04:57:00,29.1,28.9,24.15,NE,45,20.0,21.0,99,0.00,,,0.00,meteohub,2013-10-03 10:57:00,
2013-10-03 05:02:00,29.1,28.9,24.15,NE,45,23.0,23.0,99,0.00,,,0.00,meteohub,2013-10-03 11:02:00,
2013-10-03 05:07:00,29.1,28.9,24.16,NE,45,23.0,23.0,99,0.00,,,0.00,meteohub,2013-10-03 11:07:00,
2013-10-03 05:12:00,29.5,29.3,24.16,NE,45,27.0,27.0,99,0.00,,,0.00,meteohub,2013-10-03 11:12:00,
2013-10-03 05:17:00,29.5,29.3,24.16,NE,45,24.0,27.0,99,0.00,,,0.00,meteohub,2013-10-03 11:17:00,
2013-10-03 05:22:00,29.3,29.1,24.16,NNE,23,20.0,27.0,99,0.00,,,0.00,meteohub,2013-10-03 11:22:00,
2013-10-03 05:27:00,29.3,29.1,24.16,NE,45,15.0,27.0,99,0.00,,,0.00,meteohub,2013-10-03 11:27:00,
2013-10-03 05:32:00,29.1,28.9,24.16,North,0,20.0,27.0,99,0.00,,,0.00,meteohub,2013-10-03 11:32:00,
2013-10-03 05:37:00,28.9,28.8,24.16,North,0,17.0,27.0,99,0.00,,,0.00,meteohub,2013-10-03 11:37:00,
2013-10-03 05:42:00,28.8,28.6,24.16,North,0,18.0,21.0,99,0.00,,,0.00,meteohub,2013-10-03 11:42:00,
2013-10-03 05:47:00,28.6,28.4,24.16,North,0,19.0,21.0,99,0.00,,,0.00,meteohub,2013-10-03 11:47:00,
2013-10-03 05:52:00,28.6,28.4,24.16,North,0,18.0,21.0,99,0.00,,,0.00,meteohub,2013-10-03 11:52:00,
2013-10-03 05:57:00,28.2,28.0,24.16,North,0,22.0,22.0,99,0.00,,,0.00,meteohub,2013-10-03 11:57:00,
2013-10-03 06:02:00,28.0,27.9,24.16,North,0,21.0,23.0,99,0.00,,,0.00,meteohub,2013-10-03 12:02:00,
2013-10-03 06:07:00,28.0,27.9,24.16,North,0,21.0,23.0,99,0.00,,,0.00,meteohub,2013-10-03 12:07:00,
2013-10-03 06:12:00,27.5,27.3,24.16,North,0,22.0,23.0,99,0.00,,,0.00,meteohub,2013-10-03 12:12:00,
2013-10-03 06:17:00,27.3,27.1,24.16,North,0,20.0,23.0,99,0.00,,,0.00,meteohub,2013-10-03 12:17:00,
2013-10-03 06:22:00,27.1,27.0,24.16,North,0,24.0,24.0,99,0.00,,,0.00,meteohub,2013-10-03 12:22:00,
2013-10-03 06:27:00,27.0,26.8,24.16,North,0,26.0,26.0,99,0.00,,,0.00,meteohub,2013-10-03 12:27:00,
2013-10-03 06:32:00,26.8,26.6,24.17,North,0,23.0,26.0,99,0.00,,,0.00,meteohub,2013-10-03 12:32:00,
2013-10-03 06:37:00,26.8,26.6,24.16,North,0,22.0,26.0,99,0.00,,,0.00,meteohub,2013-10-03 12:37:00,
2013-10-03 06:42:00,26.6,26.4,24.17,North,0,23.0,26.0,99,0.00,,,0.00,meteohub,2013-10-03 12:42:00,
2013-10-03 06:47:00,26.6,26.4,24.17,North,0,21.0,24.0,99,0.00,,,0.00,meteohub,2013-10-03 12:47:00,
2013-10-03 06:52:00,26.4,26.2,24.17,North,0,22.0,25.0,99,0.00,,,0.00,meteohub,2013-10-03 12:52:00,
2013-10-03 06:57:00,26.2,26.1,24.17,North,0,24.0,27.0,99,0.00,,,0.00,meteohub,2013-10-03 12:57:00,
2013-10-03 07:02:00,26.2,26.1,24.17,North,0,24.0,27.0,99,0.00,,,0.00,meteohub,2013-10-03 13:02:00,
2013-10-03 07:07:00,26.2,26.1,24.17,North,0,24.0,26.0,99,0.00,,,0.00,meteohub,2013-10-03 13:07:00,
2013-10-03 07:12:00,26.1,25.9,24.17,North,0,24.0,24.0,99,0.00,,,0.00,meteohub,2013-10-03 13:12:00,
2013-10-03 07:17:00,26.1,25.9,24.17,NNE,23,27.0,27.0,99,0.00,,,0.00,meteohub,2013-10-03 13:17:00,
2013-10-03 07:22:00,26.1,25.9,24.17,North,0,20.0,27.0,99,0.00,,,0.00,meteohub,2013-10-03 13:22:00,
2013-10-03 07:32:00,25.9,25.7,24.17,North,0,24.0,27.0,99,0.00,,,0.00,meteohub,2013-10-03 13:32:00,
2013-10-03 07:37:00,25.7,25.5,24.18,North,0,23.0,24.0,99,0.00,,,0.00,meteohub,2013-10-03 13:37:00,
2013-10-03 07:42:00,25.5,25.3,24.18,North,0,22.0,24.0,99,0.00,,,0.00,meteohub,2013-10-03 13:42:00,
2013-10-03 07:47:00,25.5,25.3,24.18,North,0,23.0,24.0,99,0.00,,,0.00,meteohub,2013-10-03 13:47:00,
2013-10-03 07:52:00,25.3,25.2,24.19,North,0,24.0,24.0,99,0.00,,,0.00,meteohub,2013-10-03 13:52:00,
2013-10-03 07:57:00,25.3,25.2,24.19,North,0,19.0,24.0,99,0.00,,,0.00,meteohub,2013-10-03 13:57:00,
2013-10-03 08:02:00,25.3,25.2,24.18,North,0,18.0,24.0,99,0.00,,,0.00,meteohub,2013-10-03 14:02:00,
2013-10-03 08:07:00,25.3,25.2,24.19,North,0,18.0,24.0,99,0.00,,,0.00,meteohub,2013-10-03 14:07:00,
2013-10-03 08:12:00,25.3,25.2,24.19,North,0,21.0,23.0,99,0.00,,,0.00,meteohub,2013-10-03 14:12:00,
2013-10-03 08:17:00,25.3,25.2,24.20,North,0,19.0,23.0,99,0.00,,,0.00,meteohub,2013-10-03 14:17:00,
2013-10-03 08:22:00,25.3,25.2,24.20,North,0,21.0,23.0,99,0.00,,,0.00,meteohub,2013-10-03 14:22:00,
2013-10-03 08:27:00,25.0,24.8,24.20,North,0,21.0,23.0,99,0.00,,,0.00,meteohub,2013-10-03 14:27:00,
2013-10-03 08:32:00,25.3,25.2,24.20,North,0,21.0,23.0,99,0.00,,,0.00,meteohub,2013-10-03 14:32:00,
2013-10-03 08:37:00,25.3,25.2,24.20,North,0,21.0,23.0,99,0.00,,,0.00,meteohub,2013-10-03 14:37:00,
2013-10-03 08:42:00,25.3,25.2,24.21,North,0,22.0,23.0,99,0.00,,,0.00,meteohub,2013-10-03 14:42:00,
2013-10-03 08:47:00,25.3,25.2,24.21,North,0,21.0,24.0,99,0.00,,,0.00,meteohub,2013-10-03 14:47:00,
2013-10-03 08:52:00,25.3,25.2,24.21,North,0,21.0,24.0,99,0.00,,,0.00,meteohub,2013-10-03 14:52:00,
2013-10-03 08:57:00,25.5,25.3,24.21,North,0,21.0,24.0,99,0.00,,,0.00,meteohub,2013-10-03 14:57:00,
2013-10-03 09:02:00,25.5,25.3,24.21,North,0,21.0,23.0,99,0.00,,,0.00,meteohub,2013-10-03 15:02:00,
2013-10-03 09:07:00,25.5,25.3,24.21,North,0,21.0,23.0,99,0.00,,,0.00,meteohub,2013-10-03 15:07:00,
2013-10-03 09:12:00,25.5,25.3,24.21,North,0,22.0,23.0,99,0.00,,,0.00,meteohub,2013-10-03 15:12:00,
2013-10-03 09:17:00,25.5,25.3,24.22,NNE,23,21.0,23.0,99,0.00,,,0.00,meteohub,2013-10-03 15:17:00,
2013-10-03 09:22:00,25.7,25.5,24.22,North,0,19.0,23.0,99,0.00,,,0.00,meteohub,2013-10-03 15:22:00,
2013-10-03 09:27:00,25.9,25.7,24.22,North,0,21.0,23.0,99,0.00,,,0.00,meteohub,2013-10-03 15:27:00,
2013-10-03 09:32:00,25.9,25.7,24.22,North,0,21.0,21.0,99,0.00,,,0.00,meteohub,2013-10-03 15:32:00,
2013-10-03 09:37:00,25.9,25.7,24.22,North,0,23.0,23.0,99,0.00,,,0.00,meteohub,2013-10-03 15:37:00,
2013-10-03 09:42:00,25.9,25.7,24.22,North,0,21.0,23.0,99,0.00,,,0.00,meteohub,2013-10-03 15:42:00,
2013-10-03 09:47:00,26.1,25.9,24.22,North,0,20.0,23.0,99,0.00,,,0.00,meteohub,2013-10-03 15:47:00,
2013-10-03 09:52:00,26.1,25.9,24.22,NE,45,18.0,23.0,99,0.00,,,0.00,meteohub,2013-10-03 15:52:00,
2013-10-03 09:57:00,26.2,26.1,24.22,North,0,21.0,21.0,99,0.00,,,0.00,meteohub,2013-10-03 15:57:00,
2013-10-03 10:02:00,26.2,26.1,24.22,North,0,18.0,21.0,99,0.00,,,0.00,meteohub,2013-10-03 16:02:00,
2013-10-03 10:07:00,26.2,26.1,24.23,North,0,18.0,21.0,99,0.00,,,0.00,meteohub,2013-10-03 16:07:00,
2013-10-03 10:12:00,26.1,25.9,24.23,North,0,19.0,21.0,99,0.00,,,0.00,meteohub,2013-10-03 16:12:00,
2013-10-03 10:17:00,26.1,25.9,24.23,North,0,18.0,21.0,99,0.00,,,0.00,meteohub,2013-10-03 16:17:00,
2013-10-03 10:22:00,26.1,25.9,24.23,North,0,20.0,21.0,99,0.00,,,0.00,meteohub,2013-10-03 16:22:00,
2013-10-03 10:27:00,25.7,25.5,24.23,North,0,18.0,21.0,99,0.00,,,0.00,meteohub,2013-10-03 16:27:00,
2013-10-03 10:32:00,25.9,25.7,24.23,North,0,17.0,21.0,99,0.00,,,0.00,meteohub,2013-10-03 16:32:00,
2013-10-03 10:37:00,26.2,26.1,24.24,SW,225,18.0,21.0,99,0.00,,,0.00,meteohub,2013-10-03 16:37:00,
2013-10-03 10:42:00,26.2,26.1,24.23,SW,225,17.0,19.0,99,0.00,,,0.00,meteohub,2013-10-03 16:42:00,
2013-10-03 10:47:00,26.4,26.2,24.24,North,0,17.0,20.0,99,0.00,,,0.00,meteohub,2013-10-03 16:47:00,
2013-10-03 10:52:00,26.4,26.2,24.24,NE,45,17.0,20.0,99,0.00,,,0.00,meteohub,2013-10-03 16:52:00,
2013-10-03 10:57:00,26.2,26.1,24.24,North,0,17.0,19.0,99,0.00,,,0.00,meteohub,2013-10-03 16:57:00,
2013-10-03 11:02:00,26.4,26.2,24.24,North,0,16.0,19.0,99,0.00,,,0.00,meteohub,2013-10-03 17:02:00,
2013-10-03 11:07:00,26.4,26.2,24.24,North,0,16.0,19.0,99,0.00,,,0.00,meteohub,2013-10-03 17:07:00,
2013-10-03 11:12:00,26.4,26.2,24.25,North,0,13.0,19.0,99,0.00,,,0.00,meteohub,2013-10-03 17:12:00,
2013-10-03 11:17:00,26.6,26.4,24.24,North,0,16.0,18.0,99,0.00,,,0.00,meteohub,2013-10-03 17:17:00,
2013-10-03 11:22:00,26.4,26.2,24.24,North,0,17.0,18.0,99,0.00,,,0.00,meteohub,2013-10-03 17:22:00,
2013-10-03 11:27:00,26.4,26.2,24.24,North,0,15.0,18.0,99,0.00,,,0.00,meteohub,2013-10-03 17:27:00,
2013-10-03 11:32:00,26.4,26.2,24.25,North,0,14.0,18.0,99,0.00,,,0.00,meteohub,2013-10-03 17:32:00,
2013-10-03 11:37:00,26.6,26.4,24.25,North,0,14.0,18.0,99,0.00,,,0.00,meteohub,2013-10-03 17:37:00,
2013-10-03 11:42:00,26.6,26.4,24.25,North,0,15.0,17.0,99,0.00,,,0.00,meteohub,2013-10-03 17:42:00,
2013-10-03 11:47:00,26.6,26.4,24.25,North,0,15.0,16.0,99,0.00,,,0.00,meteohub,2013-10-03 17:47:00,
2013-10-03 11:52:00,26.6,26.4,24.25,North,0,11.0,16.0,99,0.00,,,0.00,meteohub,2013-10-03 17:52:00,
2013-10-03 11:57:00,26.6,26.4,24.25,North,0,14.0,15.0,99,0.00,,,0.00,meteohub,2013-10-03 17:57:00,
2013-10-03 12:02:00,26.6,26.4,24.25,North,0,14.0,15.0,99,0.00,,,0.00,meteohub,2013-10-03 18:02:00,
2013-10-03 12:07:00,26.6,26.4,24.25,North,0,14.0,15.0,99,0.00,,,0.00,meteohub,2013-10-03 18:07:00,
2013-10-03 12:12:00,26.6,26.4,24.25,North,0,13.0,14.0,99,0.00,,,0.00,meteohub,2013-10-03 18:12:00,
2013-10-03 12:17:00,26.6,26.4,24.25,North,0,12.0,14.0,99,0.00,,,0.00,meteohub,2013-10-03 18:17:00,
2013-10-03 12:22:00,26.6,26.4,24.25,North,0,14.0,14.0,99,0.00,,,0.00,meteohub,2013-10-03 18:22:00,
2013-10-03 12:27:00,26.8,26.6,24.25,North,0,14.0,14.0,99,0.00,,,0.00,meteohub,2013-10-03 18:27:00,
2013-10-03 12:32:00,26.6,26.4,24.27,North,0,12.0,14.0,99,0.00,,,0.00,meteohub,2013-10-03 18:32:00,
2013-10-03 12:37:00,26.8,26.6,24.27,North,0,12.0,14.0,99,0.00,,,0.00,meteohub,2013-10-03 18:37:00,
2013-10-03 12:42:00,26.8,26.6,24.27,North,0,10.0,14.0,99,0.00,,,0.00,meteohub,2013-10-03 18:42:00,
2013-10-03 12:47:00,27.0,26.8,24.27,North,0,11.0,13.0,99,0.00,,,0.00,meteohub,2013-10-03 18:47:00,
2013-10-03 12:52:00,27.1,27.0,24.27,North,0,8.0,12.0,99,0.00,,,0.00,meteohub,2013-10-03 18:52:00,
2013-10-03 12:57:00,27.1,27.0,24.28,North,0,9.0,11.0,99,0.00,,,0.00,meteohub,2013-10-03 18:57:00,
2013-10-03 13:02:00,27.1,27.0,24.27,North,0,10.0,11.0,99,0.00,,,0.00,meteohub,2013-10-03 19:02:00,
2013-10-03 13:07:00,27.1,27.0,24.28,North,0,10.0,11.0,99,0.00,,,0.00,meteohub,2013-10-03 19:07:00,
2013-10-03 13:12:00,27.5,27.3,24.28,North,0,9.0,11.0,99,0.00,,,0.00,meteohub,2013-10-03 19:12:00,
2013-10-03 13:17:00,27.5,27.3,24.28,North,0,11.0,11.0,99,0.00,,,0.00,meteohub,2013-10-03 19:17:00,
2013-10-03 13:22:00,27.9,27.7,24.27,North,0,11.0,11.0,99,0.00,,,0.00,meteohub,2013-10-03 19:22:00,
2013-10-03 13:27:00,27.9,27.7,24.27,North,0,10.0,11.0,99,0.00,,,0.00,meteohub,2013-10-03 19:27:00,
2013-10-03 13:32:00,28.0,27.9,24.27,North,0,8.0,11.0,99,0.00,,,0.00,meteohub,2013-10-03 19:32:00,
2013-10-03 13:37:00,28.2,28.0,24.28,North,0,10.0,11.0,99,0.00,,,0.00,meteohub,2013-10-03 19:37:00,
2013-10-03 13:42:00,28.4,28.2,24.27,North,0,8.0,10.0,99,0.00,,,0.00,meteohub,2013-10-03 19:42:00,
2013-10-03 13:47:00,28.4,28.2,24.28,North,0,8.0,10.0,99,0.00,,,0.00,meteohub,2013-10-03 19:47:00,
2013-10-03 13:52:00,28.4,28.2,24.28,North,0,9.0,10.0,99,0.00,,,0.00,meteohub,2013-10-03 19:52:00,
2013-10-03 13:57:00,28.4,28.2,24.27,North,0,9.0,10.0,99,0.00,,,0.00,meteohub,2013-10-03 19:57:00,
2013-10-03 14:02:00,28.6,28.4,24.27,North,0,9.0,10.0,99,0.00,,,0.00,meteohub,2013-10-03 20:02:00,
2013-10-03 14:07:00,28.6,28.4,24.27,North,0,9.0,10.0,99,0.00,,,0.00,meteohub,2013-10-03 20:07:00,
2013-10-03 14:12:00,28.4,28.2,24.28,North,0,9.0,9.0,99,0.00,,,0.00,meteohub,2013-10-03 20:12:00,
2013-10-03 14:17:00,28.6,28.4,24.28,North,0,8.0,10.0,99,0.00,,,0.00,meteohub,2013-10-03 20:17:00,
2013-10-03 14:22:00,28.6,28.4,24.28,North,0,8.0,10.0,99,0.00,,,0.00,meteohub,2013-10-03 20:22:00,
2013-10-03 14:27:00,28.6,28.4,24.29,North,0,7.0,10.0,99,0.00,,,0.00,meteohub,2013-10-03 20:27:00,
2013-10-03 14:32:00,28.9,28.8,24.30,North,0,6.0,8.0,99,0.00,,,0.00,meteohub,2013-10-03 20:32:00,
2013-10-03 14:37:00,29.3,29.1,24.30,North,0,6.0,8.0,99,0.00,,,0.00,meteohub,2013-10-03 20:37:00,
2013-10-03 14:42:00,29.5,29.3,24.30,North,0,7.0,8.0,99,0.00,,,0.00,meteohub,2013-10-03 20:42:00,
2013-10-03 14:47:00,29.3,29.1,24.30,North,0,7.0,8.0,99,0.00,,,0.00,meteohub,2013-10-03 20:47:00,
2013-10-03 14:52:00,29.3,29.1,24.30,North,0,7.0,8.0,99,0.00,,,0.00,meteohub,2013-10-03 20:52:00,
2013-10-03 14:57:00,29.1,28.9,24.30,North,0,7.0,8.0,99,0.00,,,0.00,meteohub,2013-10-03 20:57:00,
2013-10-03 15:02:00,29.1,28.9,24.30,North,0,7.0,8.0,99,0.00,,,0.00,meteohub,2013-10-03 21:02:00,
2013-10-03 15:07:00,29.1,28.9,24.31,North,0,7.0,7.0,99,0.00,,,0.00,meteohub,2013-10-03 21:07:00,
2013-10-03 15:12:00,28.9,28.8,24.31,North,0,7.0,7.0,99,0.00,,,0.00,meteohub,2013-10-03 21:12:00,
2013-10-03 15:17:00,28.8,28.6,24.31,North,0,6.0,7.0,99,0.00,,,0.00,meteohub,2013-10-03 21:17:00,
2013-10-03 15:22:00,29.1,28.9,24.31,North,0,5.0,7.0,99,0.00,,,0.00,meteohub,2013-10-03 21:22:00,
2013-10-03 15:27:00,29.3,29.1,24.31,North,0,6.0,7.0,99,0.00,,,0.00,meteohub,2013-10-03 21:27:00,
2013-10-03 15:32:00,29.3,29.1,24.31,North,0,6.0,7.0,99,0.00,,,0.00,meteohub,2013-10-03 21:32:00,
2013-10-03 15:37:00,29.1,28.9,24.32,North,0,7.0,7.0,99,0.00,,,0.00,meteohub,2013-10-03 21:37:00,
2013-10-03 15:42:00,28.9,28.8,24.31,North,0,6.0,8.0,99,0.00,,,0.00,meteohub,2013-10-03 21:42:00,
2013-10-03 15:47:00,28.9,28.8,24.31,North,0,6.0,8.0,99,0.00,,,0.00,meteohub,2013-10-03 21:47:00,
2013-10-03 15:52:00,28.8,28.6,24.32,North,0,7.0,8.0,99,0.00,,,0.00,meteohub,2013-10-03 21:52:00,
2013-10-03 15:57:00,28.8,28.6,24.31,North,0,5.0,7.0,99,0.00,,,0.00,meteohub,2013-10-03 21:57:00,
2013-10-03 16:02:00,28.8,28.6,24.31,North,0,8.0,8.0,99,0.00,,,0.00,meteohub,2013-10-03 22:02:00,
2013-10-03 16:07:00,28.8,28.6,24.31,North,0,8.0,8.0,99,0.00,,,0.00,meteohub,2013-10-03 22:07:00,
2013-10-03 16:12:00,28.8,28.6,24.31,North,0,0.0,8.0,99,0.00,,,0.00,meteohub,2013-10-03 22:12:00,
2013-10-03 16:17:00,28.8,28.6,24.32,North,0,0.0,8.0,99,0.00,,,0.00,meteohub,2013-10-03 22:17:00,
2013-10-03 16:22:00,28.8,28.6,24.32,North,0,0.0,8.0,99,0.00,,,0.00,meteohub,2013-10-03 22:22:00,
2013-10-03 16:27:00,28.8,28.6,24.32,North,0,0.0,0.0,99,0.00,,,0.00,meteohub,2013-10-03 22:27:00,
2013-10-03 16:32:00,28.8,28.6,24.31,North,0,0.0,0.0,99,0.00,,,0.00,meteohub,2013-10-03 22:32:00,
2013-10-03 16:37:00,28.8,28.6,24.32,North,0,0.0,0.0,99,0.00,,,0.00,meteohub,2013-10-03 22:37:00,
2013-10-03 16:42:00,28.6,28.4,24.32,North,0,0.0,0.0,99,0.00,,,0.00,meteohub,2013-10-03 22:42:00,
2013-10-03 16:47:00,28.6,28.4,24.32,North,0,0.0,0.0,99,0.00,,,0.00,meteohub,2013-10-03 22:47:00,
2013-10-03 16:52:00,28.4,28.2,24.32,North,0,0.0,0.0,99,0.00,,,0.00,meteohub,2013-10-03 22:52:00,
2013-10-03 16:57:00,28.4,28.2,24.33,North,0,0.0,0.0,99,0.00,,,0.00,meteohub,2013-10-03 22:57:00,
2013-10-03 17:02:00,28.4,28.2,24.33,North,0,0.0,0.0,99,0.00,,,0.00,meteohub,2013-10-03 23:02:00,
2013-10-03 17:07:00,28.4,28.2,24.34,North,0,0.0,0.0,99,0.00,,,0.00,meteohub,2013-10-03 23:07:00,
2013-10-03 17:12:00,28.2,28.0,24.34,North,0,0.0,0.0,99,0.00,,,0.00,meteohub,2013-10-03 23:12:00,
2013-10-03 17:17:00,28.6,28.4,24.35,North,0,0.0,0.0,99,0.00,,,0.00,meteohub,2013-10-03 23:17:00,
2013-10-03 17:22:00,28.2,28.0,24.35,North,0,0.0,0.0,99,0.00,,,0.00,meteohub,2013-10-03 23:22:00,
2013-10-03 17:27:00,28.2,28.0,24.35,North,0,0.0,0.0,99,0.00,,,0.00,meteohub,2013-10-03 23:27:00,
2013-10-03 17:32:00,28.2,28.0,24.34,North,0,0.0,0.0,99,0.00,,,0.00,meteohub,2013-10-03 23:32:00,
2013-10-03 17:37:00,28.2,28.0,24.34,North,0,0.0,0.0,99,0.00,,,0.00,meteohub,2013-10-03 23:37:00,
2013-10-03 17:42:00,28.0,27.9,24.35,North,0,0.0,0.0,99,0.00,,,0.00,meteohub,2013-10-03 23:42:00,
2013-10-03 17:47:00,28.0,27.9,24.35,North,0,0.0,0.0,99,0.00,,,0.00,meteohub,2013-10-03 23:47:00,
2013-10-03 17:52:00,27.9,27.7,24.35,North,0,0.0,0.0,99,0.00,,,0.00,meteohub,2013-10-03 23:52:00,
2013-10-03 17:57:00,27.9,27.7,24.35,North,0,0.0,0.0,99,0.00,,,0.00,meteohub,2013-10-03 23:57:00,
2013-10-03 18:02:00,27.9,27.7,24.35,North,0,0.0,0.0,99,0.00,,,0.00,meteohub,2013-10-04 00:02:00,
2013-10-03 18:07:00,27.9,27.7,24.35,North,0,0.0,0.0,99,0.00,,,0.00,meteohub,2013-10-04 00:07:00,
2013-10-03 18:12:00,27.9,27.7,24.35,North,0,0.0,0.0,99,0.00,,,0.00,meteohub,2013-10-04 00:12:00,
2013-10-03 18:17:00,27.9,27.7,24.36,North,0,0.0,0.0,99,0.00,,,0.00,meteohub,2013-10-04 00:17:00,
2013-10-03 18:22:00,27.9,27.7,24.36,North,0,0.0,0.0,99,0.00,,,0.00,meteohub,2013-10-04 00:22:00,
2013-10-03 18:27:00,27.7,27.5,24.36,North,0,0.0,0.0,99,0.00,,,0.00,meteohub,2013-10-04 00:27:00,
2013-10-03 18:32:00,27.7,27.5,24.36,North,0,0.0,0.0,99,0.00,,,0.00,meteohub,2013-10-04 00:32:00,
2013-10-03 18:37:00,27.7,27.5,24.36,North,0,0.0,0.0,99,0.00,,,0.00,meteohub,2013-10-04 00:37:00,
2013-10-03 18:42:00,27.5,27.3,24.36,North,0,0.0,0.0,99,0.00,,,0.00,meteohub,2013-10-04 00:42:00,
2013-10-03 18:47:00,27.5,27.3,24.36,North,0,0.0,0.0,99,0.00,,,0.00,meteohub,2013-10-04 00:47:00,
2013-10-03 18:52:00,27.5,27.3,24.37,North,0,0.0,0.0,99,0.00,,,0.00,meteohub,2013-10-04 00:52:00,
2013-10-03 18:57:00,27.3,27.1,24.37,North,0,0.0,0.0,99,0.00,,,0.00,meteohub,2013-10-04 00:57:00,
2013-10-03 19:02:00,27.3,27.1,24.37,North,0,0.0,0.0,99,0.00,,,0.00,meteohub,2013-10-04 01:02:00,
2013-10-03 19:07:00,27.3,27.1,24.37,North,0,0.0,0.0,99,0.00,,,0.00,meteohub,2013-10-04 01:07:00,
2013-10-03 19:12:00,27.3,27.1,24.37,North,0,0.0,0.0,99,0.00,,,0.00,meteohub,2013-10-04 01:12:00,
2013-10-03 19:17:00,27.1,27.0,24.38,North,0,0.0,0.0,99,0.00,,,0.00,meteohub,2013-10-04 01:17:00,
2013-10-03 19:22:00,27.1,27.0,24.38,North,0,0.0,0.0,99,0.00,,,0.00,meteohub,2013-10-04 01:22:00,
2013-10-03 19:27:00,27.1,27.0,24.38,North,0,0.0,0.0,99,0.00,,,0.00,meteohub,2013-10-04 01:27:00,
2013-10-03 19:32:00,27.1,27.0,24.39,North,0,0.0,0.0,99,0.00,,,0.00,meteohub,2013-10-04 01:32:00,
2013-10-03 19:37:00,27.0,26.8,24.39,North,0,0.0,0.0,99,0.00,,,0.00,meteohub,2013-10-04 01:37:00,
2013-10-03 19:42:00,27.0,26.8,24.39,North,0,0.0,0.0,99,0.00,,,0.00,meteohub,2013-10-04 01:42:00,
2013-10-03 19:47:00,27.0,26.8,24.40,North,0,0.0,0.0,99,0.00,,,0.00,meteohub,2013-10-04 01:47:00,
2013-10-03 19:52:00,27.0,26.8,24.40,North,0,0.0,0.0,99,0.00,,,0.00,meteohub,2013-10-04 01:52:00,
2013-10-03 19:57:00,27.0,26.8,24.40,North,0,0.0,0.0,99,0.00,,,0.00,meteohub,2013-10-04 01:57:00,
2013-10-03 20:02:00,27.1,27.0,24.41,North,0,0.0,0.0,99,0.00,,,0.00,meteohub,2013-10-04 02:02:00,
2013-10-03 20:07:00,27.1,27.0,24.40,North,0,0.0,0.0,99,0.00,,,0.00,meteohub,2013-10-04 02:07:00,
2013-10-03 20:12:00,27.0,26.8,24.40,North,0,0.0,0.0,99,0.00,,,0.00,meteohub,2013-10-04 02:12:00,
2013-10-03 20:17:00,27.0,26.8,24.40,North,0,0.0,0.0,99,0.00,,,0.00,meteohub,2013-10-04 02:17:00,
2013-10-03 20:22:00,27.1,27.0,24.40,North,0,0.0,0.0,99,0.00,,,0.00,meteohub,2013-10-04 02:22:00,
2013-10-03 20:27:00,27.0,26.8,24.41,North,0,0.0,0.0,99,0.00,,,0.00,meteohub,2013-10-04 02:27:00,
2013-10-03 20:32:00,27.0,26.8,24.40,North,0,0.0,0.0,99,0.00,,,0.00,meteohub,2013-10-04 02:32:00,
2013-10-03 20:37:00,27.0,26.8,24.40,North,0,0.0,0.0,99,0.00,,,0.00,meteohub,2013-10-04 02:37:00,
2013-10-03 20:42:00,26.6,26.4,24.40,North,0,0.0,0.0,99,0.00,,,0.00,meteohub,2013-10-04 02:42:00,
2013-10-03 20:47:00,27.0,26.8,24.39,North,0,0.0,0.0,99,0.00,,,0.00,meteohub,2013-10-04 02:47:00,
2013-10-03 20:52:00,27.0,26.8,24.39,North,0,0.0,0.0,99,0.00,,,0.00,meteohub,2013-10-04 02:52:00,
2013-10-03 20:57:00,27.0,26.8,24.39,North,0,0.0,0.0,99,0.00,,,0.00,meteohub,2013-10-04 02:57:00,
2013-10-03 21:02:00,27.0,26.8,24.40,North,0,0.0,0.0,99,0.00,,,0.00,meteohub,2013-10-04 03:02:00,
2013-10-03 21:07:00,27.0,26.8,24.40,North,0,0.0,0.0,99,0.00,,,0.00,meteohub,2013-10-04 03:07:00,
2013-10-03 21:12:00,27.0,26.8,24.40,North,0,0.0,0.0,99,0.00,,,0.00,meteohub,2013-10-04 03:12:00,
2013-10-03 21:17:00,26.8,26.6,24.41,North,0,0.0,0.0,99,0.00,,,0.00,meteohub,2013-10-04 03:17:00,
2013-10-03 21:22:00,27.0,26.8,24.42,North,0,0.0,0.0,99,0.00,,,0.00,meteohub,2013-10-04 03:22:00,
2013-10-03 21:27:00,27.0,26.8,24.42,North,0,0.0,0.0,99,0.00,,,0.00,meteohub,2013-10-04 03:27:00,
2013-10-03 21:32:00,27.0,26.8,24.42,North,0,0.0,0.0,99,0.00,,,0.00,meteohub,2013-10-04 03:32:00,
2013-10-03 21:37:00,27.0,26.8,24.42,North,0,0.0,0.0,99,0.00,,,0.00,meteohub,2013-10-04 03:37:00,
2013-10-03 21:42:00,26.8,26.6,24.41,North,0,0.0,0.0,99,0.00,,,0.00,meteohub,2013-10-04 03:42:00,
2013-10-03 21:47:00,27.0,26.8,24.42,North,0,0.0,0.0,99,0.00,,,0.00,meteohub,2013-10-04 03:47:00,
2013-10-03 21:52:00,27.0,26.8,24.42,North,0,0.0,0.0,99,0.00,,,0.00,meteohub,2013-10-04 03:52:00,
2013-10-03 21:57:00,27.0,26.8,24.42,North,0,0.0,0.0,99,0.00,,,0.00,meteohub,2013-10-04 03:57:00,
2013-10-03 22:42:00,27.1,27.0,24.42,North,0,0.0,0.0,99,0.00,,,0.00,meteohub,2013-10-04 04:42:00,
2013-10-03 22:47:00,27.0,26.8,24.41,North,0,0.0,0.0,99,0.00,,,0.00,meteohub,2013-10-04 04:47:00,
2013-10-03 22:52:00,27.0,26.8,24.41,North,0,0.0,0.0,99,0.00,,,0.00,meteohub,2013-10-04 04:52:00,
2013-10-03 22:57:00,27.1,27.0,24.41,North,0,0.0,0.0,99,0.00,,,0.00,meteohub,2013-10-04 04:57:00,
2013-10-03 23:02:00,27.0,26.8,24.41,North,0,0.0,0.0,99,0.00,,,0.00,meteohub,2013-10-04 05:02:00,
2013-10-03 23:12:00,27.0,26.8,24.42,North,0,0.0,0.0,99,0.00,,,0.00,meteohub,2013-10-04 05:12:00,
2013-10-03 23:17:00,27.0,26.8,24.43,North,0,0.0,0.0,99,0.00,,,0.00,meteohub,2013-10-04 05:17:00,
2013-10-03 23:22:00,27.0,26.8,24.43,North,0,0.0,0.0,99,0.00,,,0.00,meteohub,2013-10-04 05:22:00,
2013-10-03 23:27:00,27.1,27.0,24.43,North,0,0.0,0.0,99,0.00,,,0.00,meteohub,2013-10-04 05:27:00,
2013-10-03 23:32:00,27.1,27.0,24.43,North,0,0.0,0.0,99,0.00,,,0.00,meteohub,2013-10-04 05:32:00,
2013-10-03 23:37:00,27.1,27.0,24.42,North,0,0.0,0.0,99,0.00,,,0.00,meteohub,2013-10-04 05:37:00,
2013-10-03 23:42:00,27.1,27.0,24.42,North,0,0.0,0.0,99,0.00,,,0.00,meteohub,2013-10-04 05:42:00,
2013-10-03 23:47:00,27.1,27.0,24.42,North,0,0.0,0.0,99,0.00,,,0.00,meteohub,2013-10-04 05:47:00,
2013-10-03 23:52:00,27.1,27.0,24.42,North,0,0.0,0.0,99,0.00,,,0.00,meteohub,2013-10-04 05:52:00,
2013-10-03 23:57:00,27.3,27.1,24.43,North,0,0.0,0.0,99,0.00,,,0.00,meteohub,2013-10-04 05:57:00,